Location: Unspecified
(0.0000°N, 0.0000°E)
Time: 03:41:12
(UTC+00:00)

RS-15 - Pass Details

Date: 12 December 2017
Orbit: 1886 x 2158 km, 64.8° (Epoch: 17 January)

Event Time Altitude Azimuth Distance (km) Brightness Sun altitude
Exits shadow 03:14:13 32° 227° (SW) 2,877 8.7 -36.1°
Drops below altitude 10° 03:21:28 10° 187° (S) 4,266 10.0 -34.5°
Sets 03:25:11 0° 178° (S) 5,267 10.7 -33.7°
